Terug naar catalogus

STARLINK-34611

ActiefCommunicatieVLEO
NORAD 64918·PAYLOAD·🇺🇸 United States

Gelanceerd Jul 26, 2025 vanaf Cape Canaveral Space Force Station

Loading…

Volgende Passages (komende 24 uur)

TLE

VersSource: CelesTrak SupGP

Epoch: Sep 14, 2026, 23:04 UTC

1 64918C 25157Q   26257.96159722 -.00044094  00000+0 -13023-2 0  2571
2 64918  53.1588 183.2863 0001299  82.1170  67.9258 15.34424708    17

Volg STARLINK-34611 in realtime met AllMySat

Download on the App Store